Temp
25 25 26 26 26 26 26 25 25 23 22 22 21 21 21 21 20 21 21 20 21 21
28 25 26 26 26 26 27 26 25 24 22 22 21 20 20 20 21 20 20 20 20 20
27 27 25 25 26 26 26 27 26 25 23 21 21 21 20 20 20 20 20 20 20 20
26 26 26 25 25 25 25 26 26 25 23 21 21 21 20 20 20 20 20 20 20 20
25 26 26 25 25 24 25 25 25 25 23 22 21 21 20 20 20 20 20 20 19 19
25 25 25 25 25 25 24 24 25 25 24 22 21 21 20 20 20 19 19 19 19 18
24 24 24 24 24 25 24 24 24 24 24 23 22 21 21 20 20 19 18 18 19 18
24 24 24 24 24 24 24 24 24 24 24 23 23 22 22 21 20 18 18 18 18 18
23 23 22 23 23 23 23 24 23 23 23 23 23 22 21 20 19 18 18 18 17 17
23 22 22 21 21 22 23 23 23 23 23 23 22 21 20 20 18 17 17 17 16 15
22 22 21 20 20 20 20 21 21 22 22 22 21 19 19 18 17 16 16 16 16 14
21 21 21 19 19 18 18 19 19 18 18 19 18 18 18 16 16 14 14 14 14 13
20 19 20 19 19 18 18 17 17 17 16 17 17 16 16 15 15 12 11 11 12 12
20 19 19 19 19 18 17 16 15 15 15 15 15 15 14 15 15 12 9 9 9 9
Height
709 714 718 722 725 728 730 732 737 740 744 748 753 758 762 766 767 771 773 775 779 781
704 706 708 713 716 719 722 725 727 731 735 739 744 748 753 756 759 762 765 767 771 774
698 699 700 705 708 711 715 717 719 722 726 730 735 739 743 747 750 754 756 759 763 766
692 694 696 697 701 704 707 709 711 713 716 720 725 730 734 737 741 745 748 751 755 758
688 690 691 692 693 697 698 700 702 704 707 711 714 719 723 727 731 736 740 743 747 749
683 684 686 687 688 690 692 694 696 698 699 702 705 709 714 718 723 727 731 734 736 741
681 680 680 681 682 682 684 686 689 691 692 695 699 702 707 711 714 718 723 727 728 733
677 677 676 676 675 676 677 678 681 684 686 689 691 692 695 699 703 709 715 719 722 726
674 672 671 671 670 669 670 670 674 675 677 680 682 684 688 694 699 701 704 710 715 720
670 667 666 665 665 664 663 664 664 666 670 672 674 676 684 690 696 695 697 702 708 714
667 664 662 661 660 660 659 658 657 659 662 663 665 669 677 686 691 692 694 697 702 709
665 662 659 657 657 656 656 656 654 656 656 656 660 665 672 678 685 689 690 693 697 705
662 660 657 654 652 651 651 652 653 653 654 654 658 660 665 672 678 684 688 689 694 702
656 655 654 652 649 647 647 648 649 650 651 654 656 658 662 667 671 676 680 682 690 698
Wind_Speed
45 42 39 39 35 34 35 36 37 41 43 42 40 39 38 36 37 37 35 37 33 28
32 41 40 38 40 36 36 35 37 40 43 42 40 39 38 37 37 34 37 33 34 33
35 34 39 37 36 34 39 32 35 40 40 40 39 39 39 38 36 36 33 34 32 32
29 32 31 33 36 36 36 40 35 38 40 38 39 39 38 38 35 36 34 33 32 32
19 23 31 32 33 37 37 38 39 38 38 37 39 39 40 38 35 35 34 33 32 31
20 23 27 27 31 35 36 36 37 37 36 38 38 38 39 38 36 35 33 32 35 32
14 17 24 27 30 29 33 34 35 37 38 37 36 36 37 38 37 35 35 34 35 33
15 14 18 21 24 29 29 32 34 35 36 37 37 39 40 40 38 35 33 35 32 29
15 14 16 19 21 22 28 30 32 35 36 36 38 39 44 39 34 35 38 34 31 27
18 17 18 18 16 18 26 28 32 34 35 36 37 37 43 40 36 38 38 36 30 24
23 19 18 20 22 23 20 22 25 28 31 32 31 33 36 37 38 36 35 33 30 27
21 21 19 19 23 21 19 19 21 19 22 25 25 28 31 39 35 34 33 31 28 28
19 23 19 21 18 23 23 22 21 22 22 25 26 31 41 42 35 33 32 30 29 29
19 19 23 21 23 18 22 22 21 23 23 27 29 36 43 42 38 40 37 35 32 32
Wind_Direction
212 215 220 223 220 220 217 216 216 213 214 216 217 218 218 221 219 219 220 219 222 224
231 216 221 225 225 226 224 220 219 217 213 215 215 215 216 217 221 217 220 222 221 225
238 236 221 224 228 227 229 228 219 216 214 211 212 213 212 216 219 218 218 218 222 223
239 240 235 224 228 232 231 227 228 218 209 208 208 210 211 215 216 216 215 215 214 220
256 244 241 241 235 230 231 228 224 217 207 207 208 208 209 212 213 214 214 214 215 219
249 246 250 249 241 236 234 232 227 222 214 209 209 207 209 210 212 211 211 210 213 210
280 267 248 246 247 246 236 232 231 226 220 214 213 209 208 207 209 206 210 209 213 216
286 279 270 263 249 245 246 236 233 230 226 222 216 211 206 204 204 201 202 208 211 213
279 272 273 270 261 256 244 240 234 231 226 223 219 216 205 203 203 197 199 195 195 199
274 271 262 260 268 261 250 243 234 231 227 224 220 212 204 207 204 198 200 194 193 190
284 270 264 263 264 263 261 245 241 233 230 224 212 190 195 199 202 200 197 194 192 189
306 278 253 255 259 258 251 242 230 219 204 204 192 197 199 191 194 195 186 185 183 187
278 292 280 251 251 249 249 245 235 224 216 214 208 194 191 196 192 184 178 174 179 186
265 265 277 285 247 241 238 235 227 223 213 215 212 201 196 205 193 187 174 169 170 175